Regional Weather Roundup
Issued by NWS

Home | Current Version | Previous Version | Graphics & Text | Print | Product List | Glossary On
Versions: 1 2 3 4 5 6 7 8 9 10 11 12 13 14 15 16 17 18 19 20 21 22 23 24 25 26 27 28 29 30 31 32 33 34 35 36 37 38 39 40 41 42 43 44 45 46 47 48 49 50
000
ASUS43 KLOT 232209
RWRIL

ILLINOIS REGIONAL WEATHER ROUNDUP
NATIONAL WEATHER SERVICE CHICAGO/ROMEOVILLE IL
500 PM CDT FRI JUN 23 2017

NOTE: "FAIR" INDICATES FEW OR NO CLOUDS BELOW 12,000 FEET WITH NO
SIGNIFICANT WEATHER AND/OR OBSTRUCTIONS TO VISIBILITY.

* THESE STATIONS ARE NOT UNDER NWS QUALITY CONTROL. THEY ALSO MAY NOT
  REPORT WEATHER SUCH AS PRECIPITATION OR FOG.

ILZ001-002-007-009-015-016-024-232300-
NORTHWEST ILLINOIS

CITY           SKY/WX    TMP DP  RH WIND       PRES   REMARKS
MOLINE         SUNNY     79  55  43 NW25G33   29.80R
STERLING*      PTSUNNY   77  56  48 NW16G26   29.76R
SAVANNA*       MOSUNNY   76  55  48 NW16G26   29.79R
$$

ILZ003-004-008-010-011-017-018-232300-
NORTH CENTRAL ILLINOIS

CITY           SKY/WX    TMP DP  RH WIND       PRES   REMARKS
ROCKFORD       PTSUNNY   80  52  37 NW14      29.74S HX  80
FREEPORT*      SUNNY     75  53  46 NW16G28   29.78R
ROCHELLE*      PTSUNNY   78  58  49 W17       29.75R
DE KALB*       PTSUNNY   76  56  49 W15       29.75S
PERU*          MOSUNNY   78  56  46 W15G24    29.76S
$$

ILZ005-006-012>014-019>023-232300-
NORTHEAST ILLINOIS

CITY           SKY/WX    TMP DP  RH WIND       PRES   REMARKS
CHICAGO-OHARE  PTSUNNY   82  49  31 NW14G21   29.70F HX  81
CHICAGO-MIDWAY PTSUNNY   82  48  30 W17G25    29.71S HX  81
AURORA         PTSUNNY   79  57  46 W14       29.74S HX  80
LANSING*       MOSUNNY   80  48  31 W7        29.72R HX  80
JOLIET*        MOSUNNY   82  51  33 NW7       29.73F HX  81
WAUKEGAN       CLOUDY    78  52  40 VRB6      29.70S
DUPAGE AIRPORT MOSUNNY   79  54  41 W13G21    29.72F
WHEELING       MOSUNNY   81  50  33 W10G18    29.72S HX  80
MORRIS*        MOSUNNY   81  52  37 W10G22    29.73S HX  80
ROMEOVILLE*    MOSUNNY   81  48  30 NW18      29.73F HX  80
NORTHERLY ISL    N/A     74  60  61 SE3         N/A
$$

LMZ740>746-232300-
SOUTHERN LAKE MICHIGAN

STATION/POSITION SKY/WX   TEMP    WIND        PRES    VSBY  WAVE
                          AIR SEA DIR/SP/G                  HT/PER
                          (F)     (DEG/KT/KT) (MB)    (MI)  (FT/S)
SOUTHERN BUOY              65 63  220/  6/  8 1005.2          0
WILMETTE HARBOR            75 67  300/  4/  6   N/A           1
HARRISON CRIB              72     180/ 10/ 11   N/A
BURNHAM HARBOR             71                   N/A
CALUMET HARBOR             74     110/  6/  7 1006.1R
BURNS HARBOR               74      70/  5/  6 1007.1S
MICHIGAN CITY              70      30/  3/  3   N/A
MICHIGAN CITY 6N           69 70  110/  2/  2   N/A           1
ST. JOSEPH                 69 69  230/  4/  6 1006.3          1/ 3
$$

ILZ025>027-034>036-040-047-049-050-058-095>099-232300-
WEST-CENTRAL ILLINOIS

CITY           SKY/WX    TMP DP  RH WIND       PRES   REMARKS
QUINCY         MOSUNNY   82  51  34 W17G24    29.83S HX  81
GALESBURG*     PTSUNNY   78  56  46 NW18G26   29.80S
MACOMB*        PTSUNNY   80  53  38 W15G22    29.83S HX  80
JACKSONVILLE*  PTSUNNY   82  53  37 NW10G18   29.81R HX  81
PITTSFIELD*    CLOUDY    82  58  42 NW12G17   29.84R HX  82
$$

ILZ028>032-037-038-041>044-048-051>054-059>061-232300-
CENTRAL ILLINOIS

CITY           SKY/WX    TMP DP  RH WIND       PRES   REMARKS
PONTIAC        CLOUDY    80  55  41 NW8       29.77S HX  80
BLOOMINGTON    CLOUDY    79  52  38 NW16      29.79S
DECATUR        MOSUNNY   80  53  39 NW14      29.78R HX  80
PEORIA         MOSUNNY   81  56  42 NW10      29.78S HX  81
LACON*         MOSUNNY   78  57  48 NW8       29.76S
LINCOLN*       CLOUDY    82  53  36 N6        29.79R HX  81
SPRINGFIELD    CLOUDY    83  55  38 N10       29.80R HX  82
TAYLORVILLE    PTSUNNY   79  57  47 N6        29.79R HX  80
$$

ILZ033-039-045-046-055>057-062-063-232300-
EAST-CENTRAL ILLINOIS

CITY           SKY/WX    TMP DP  RH WIND       PRES   REMARKS
CHAMPAIGN      SUNNY     80  51  36 NW18G25   29.76S HX  80
RANTOUL*       SUNNY     81  54  39 N8G17     29.76S HX  81
MATTOON        CLOUDY    79  65  62 N12G22    29.74S HX  81
PARIS*         PTSUNNY   77  64  64 N3        29.75S
$$

ILZ079-100>102-232300-
SOUTHWEST ILLINOIS

CITY           SKY/WX    TMP DP  RH WIND       PRES   REMARKS
ALTON          PTSUNNY   77  59  53 NW9       29.81R
BELLEVILLE     CLOUDY    80  58  46 NW8       29.80R HX  81
CAHOKIA*       CLOUDY    82  52  35 N15       29.80R HX  81
SPARTA*        CLOUDY    80  57  46 NW12G17   29.79R HX  80
$$

ILZ064>066-069>071-074>076-080>082-084>086-088>090-092>094-232300-
SOUTH-CENTRAL ILLINOIS

CITY           SKY/WX    TMP DP  RH WIND       PRES   REMARKS
CARBONDALE     CLOUDY    81  73  76 N12       29.75R HX  86
CAIRO*         CLOUDY    83  76  78 W6        29.73S HX  91
EFFINGHAM*     MOSUNNY   78  68  71 NW10G18   29.77R HX  80
MARION         PTSUNNY   81  81 100 N14       29.75R HX  91
MT. VERNON     MOSUNNY   80  72  76 VRB5      29.76R HX  84
CENTRALIA*     MOSUNNY   80  70  71 N12       29.77R HX  83
SALEM*         PTSUNNY   80  69  70 N10G17    29.77R HX  83
METROPOLIS*    PTSUNNY   84  76  76 W8        29.74R HX  93
$$

ILZ067-068-072-073-078-083-087-091-232300-
SOUTHEAST ILLINOIS

CITY           SKY/WX    TMP DP  RH WIND       PRES   REMARKS
LAWRENCEVILLE  CLOUDY    77  74  90 N10       29.71R
FLORA*         CLOUDY    82  73  74 NW15G23   29.74R HX  86
FAIRFIELD*     CLOUDY    81  72  73 N8        29.73R HX  85
HARRISBURG*    CLOUDY    78  74  87 NW9G16    29.73R HX  81
ROBINSON*      PTSUNNY   75  71  86 N14       29.72S
CARMI*         RAIN      76  73  91 N7G13     29.71R
$$

ABBREVIATIONS USED IN REMARKS
   TC - TEMPERATURE IN CELSIUS
  WCI - WIND CHILL INDEX
   HX - HEAT INDEX
  VSB - VISIBILITY
$$





USA.gov is the U.S. government's official web portal to all federal, state and local government web resources and services.